Location: Teynham
(51.3333°N, 0.8167°E)
Time: 10:28:26
(UTC+00:00)

Daily predictions for brighter satellites

Satellite Brightness Start Highest point End
(mag) Time Altitude Azimuth Time Altitude Azimuth Time Altitude Azimuth
CZ-4C R/B 3.3 16:15:21 10° NW 16:21:32 41° NNE 16:28:54 10° E
USA 305 3.0 16:24:00 10° W 16:28:13 74° NNW 16:32:28 10° ENE
CZ-4B R/B 3.0 16:24:35 10° SSE 16:28:31 51° ENE 16:32:16 10° N
SMAP 3.5 16:26:02 10° SE 16:30:20 38° ENE 16:34:39 10° N
CZ-2C R/B 2.9 16:27:33 10° SSE 16:32:23 66° ENE 16:37:07 10° N
Cosmos 1898 Rocket 3.7 16:27:36 10° NNW 16:32:44 48° ENE 16:37:46 10° SE
Cosmos 44 3.7 16:28:24 10° NW 16:33:13 66° SW 16:37:43 10° SSE
Cosmos 1805 Rocket 4.5 16:29:46 10° N 16:33:29 27° ENE 16:37:10 10° SE
Cosmos 1461 4.0 16:29:54 10° WSW 16:33:49 37° NW 16:37:37 10° NNE
Sich 1 4.2 16:30:42 10° NNE 16:34:05 22° ENE 16:37:28 10° ESE
Okean 3 Rocket 4.2 16:32:32 10° NNW 16:37:02 65° W 16:41:27 10° S
Cosmos 2360 Rocket 4.0 16:34:47 10° N 16:37:13 13° NNE 16:39:39 10° NE
Cosmos 1842 Rocket 3.8 16:35:40 10° S 16:40:00 53° E 16:44:24 10° NNE
Cosmos 2221 2.6 16:35:53 10° S 16:40:05 60° E 16:44:21 10° NNE
Cosmos 1513 Rocket 4.5 16:34:26 10° S 16:40:32 76° E 16:46:47 10° NNE
SL-08 R/B 3.3 16:39:53 10° NNE 16:44:39 72° ESE 16:49:17 10° S
deb Kosmos-1763 4.1 16:45:59 10° SSW 16:49:23 73° WNW 16:52:49 10° NNE
Cosmos 2084 3.6 16:45:07 10° NW 16:49:24 82° SW 16:53:51 10° SE
Cosmos 1656 4.0 16:44:22 10° NNW 16:49:55 74° WSW 16:55:29 10° SSE
AQUARIUS 4.3 16:49:31 10° SE 16:53:53 51° ENE 16:58:15 10° N
NOSS 2-1 (E) 3.7 16:51:38 10° WSW 16:54:45 44° NW 16:58:03 11° NE
FengYun 1-2 T 4.2 16:49:47 10° SSE 16:55:21 78° ENE 17:00:55 10° NNW
MOS 1 Rocket 4.3 16:50:28 10° N 16:55:24 49° WNW 17:00:01 10° SW
NOSS 2-2 (C) 4.2 16:51:07 10° NW 16:55:46 57° NE 17:02:13 10° ESE
H-2A R/B 2.5 16:51:39 10° SE 16:56:22 38° ENE 17:00:59 10° N
Cosmos 2034 Rocket 4.0 16:50:50 10° S 16:56:54 65° E 17:03:01 10° NNE
Cosmos 1666 4.1 16:54:38 10° NNE 16:57:06 17° ENE 16:59:34 10° ESE
Cosmos 2322 Rocket 3.7 16:53:25 10° NNW 16:57:16 18° NNE 17:00:05 13° ENE
ERBS 2.5 16:54:06 10° WSW 16:57:16 57° NNW 16:59:46 15° NE
USA 306 3.0 16:56:05 10° W 17:00:20 64° N 17:03:44 15° ENE
Cosmos 1697 Rocket 2.6 16:55:38 10° NNW 17:01:17 76° ENE 17:06:54 10° SE
Cosmos 1271 Rocket 4.1 16:58:18 10° SW 17:02:03 40° WNW 17:05:52 10° N
USA 267 3.4 16:58:13 12° ENE 17:04:19 68° SE 17:10:51 10° SW
Cosmos 2369 3.8 16:58:54 10° NNW 17:04:36 58° NE 17:10:14 10° SE
Cosmos 1980 Rocket 2.4 16:59:32 10° NNW 17:05:03 48° NE 17:10:31 10° SE
COSMO-SKYMED 1 4.0 17:05:08 15° ENE 17:06:53 19° E 17:09:58 10° SE
Cosmos 1763 Rocket 3.6 17:03:33 10° S 17:08:29 55° ESE 17:13:29 10° NNE
Cosmos 1939 Rocket 2.9 17:05:50 10° SSE 17:09:58 89° ENE 17:14:04 10° NNW
SL-24 R/B - RUBIN 2 3.6 17:05:24 10° NW 17:10:01 57° NE 17:14:20 10° ESE
Meteor 1-25 Rocket 4.1 17:04:42 10° N 17:10:18 75° ENE 17:15:53 10° SSE
Cosmos 841 Rocket 4.3 17:09:40 10° SSE 17:14:07 30° ESE 17:17:15 17° NE
Cosmos 1937 Rocket 3.5 17:09:01 10° NNW 17:14:21 73° ENE 17:19:40 10° SSE
SL-16 R/B 3.3 17:10:07 10° NNW 17:14:43 24° NE 17:17:26 17° ENE
H-2A R/B 4.5 17:17:11 11° NNE 17:17:11 11° NNE 17:17:29 10° NNE
Cosmos 1812 4.0 17:13:19 10° SE 17:16:10 20° E 17:16:31 20° E
Cosmos 1633 Rocket 3.9 17:13:40 10° N 17:17:27 28° ENE 17:21:13 10° SE
Cosmos 1634 Rocket 4.2 17:12:37 10° SSE 17:18:39 48° E 17:24:41 10° NNE
USA 307 3.1 17:14:24 10° W 17:18:39 62° N 17:21:20 22° ENE
USA 229 DEB 4.2 17:11:42 10° NW 17:18:57 72° SW 17:26:40 10° SSE
USA 229 4.2 17:11:48 10° NW 17:19:03 73° SW 17:26:46 10° SSE
Cosmos 2082 Rocket 3.1 17:16:45 10° SSE 17:21:35 30° ESE 17:24:28 19° ENE
YAOGAN 1 3.9 17:22:20 19° NE 17:22:20 19° NE 17:25:03 10° NNE
Cosmos 2333 Rocket 4.0 17:19:46 10° N 17:22:47 14° NNE 17:24:10 13° NE
Cosmos 2026 Rocket 3.9 17:16:53 10° N 17:23:03 69° ENE 17:29:06 10° SSE
NOAA 6 4.2 17:18:11 10° SSE 17:23:20 79° WSW 17:28:30 10° NNW
SeaSat 1 4.3 17:20:08 10° NNE 17:24:01 24° NW 17:27:53 10° W
Cosmos 2195 Rocket 4.4 17:20:07 10° N 17:26:18 83° E 17:32:30 10° SSE
CZ-4B DEB 4.2 17:22:24 10° SSE 17:27:55 90° ENE 17:33:28 10° NNW
CORIOLIS 4.3 17:22:38 10° SSE 17:28:03 81° WSW 17:33:31 10° NNW
ATLAS 2AS CENTAUR R/B 3.9 17:21:23 10° WNW 17:28:18 34° NNW 17:33:27 16° NE
Cosmos 372 Rocket 3.9 17:23:28 10° NNW 17:28:40 64° ENE 17:33:53 10° SE
Cosmos 1602 3.6 17:25:06 10° N 17:28:59 87° E 17:32:51 10° S
Cosmos 2278 3.8 17:23:26 10° NNW 17:29:02 53° NE 17:34:37 10° SE
Cosmos 1743 Rocket 4.1 17:26:47 10° NNW 17:31:04 60° W 17:35:19 10° S
Okean O Rocket 2.0 17:26:58 10° SE 17:31:09 41° ENE 17:35:21 10° N
ATLAS CENTAUR R/B 3.3 17:29:39 10° W 17:33:14 24° NNW 17:36:14 13° NNE
SL-16 R/B 4.4 17:33:11 10° NNW 17:34:50 11° NNW 17:36:29 10° N
Meteor 2-14 Rocket 4.3 17:29:08 10° N 17:35:17 78° E 17:41:22 10° SSE
Cosmos 1782 2.9 17:33:02 10° S 17:36:56 54° E 17:39:44 18° NNE
Cosmos 1151 Rocket 3.7 17:33:09 10° SSE 17:37:00 32° E 17:38:08 28° ENE
COSMOS 2406 3.3 17:33:24 10° SSW 17:39:02 61° ESE 17:43:04 19° NE
USA 234 4.0 17:33:28 10° SE 17:39:50 52° SW 17:46:12 10° WNW
COSMOS 2455 3.2 17:35:08 10° S 17:40:48 45° ESE 17:43:55 25° ENE
USA 308 3.1 17:36:55 10° W 17:41:08 59° N 17:42:51 33° ENE
Cosmos 1666 Rocket 3.6 17:38:07 10° N 17:42:32 54° ENE 17:46:51 10° SSE
ARGOS 3.1 17:39:34 10° SSE 17:44:52 59° ENE 17:50:12 10° N
Cosmos 1470 Rocket 4.3 17:41:32 10° N 17:45:00 30° NE 17:45:00 30° NE
Cosmos 1833 Rocket 2.6 17:39:56 10° SSW 17:45:33 83° ESE 17:49:48 18° NNE
ISS -3.2 17:45:30 10° W 17:48:51 55° SSW 17:50:10 31° SE
NOSS 2-2 (D) 4.4 17:44:07 10° NW 17:49:06 79° SW 17:56:05 10° SE
Cosmos 1328 Rocket 4.3 17:47:21 10° SSE 17:50:52 32° ESE 17:50:52 32° ESE
Cosmos 2219 Rocket 3.9 17:49:01 10° N 17:52:18 15° NNE 17:52:22 15° NNE
CZ-2D R/B 3.6 17:48:40 10° S 17:52:29 66° WSW 17:56:19 10° NNW
PAYLOAD B 4.5 17:49:22 10° S 17:54:59 73° WSW 18:00:37 10° NNW
SKYMED 2 3.7 17:53:44 33° NE 17:55:19 50° E 17:59:33 10° S
CZ-4 R/B 4.3 17:51:30 10° SSE 17:55:34 63° ENE 17:59:42 10° N
Lacrosse 5 rocket 1.3 17:51:56 10° WNW 17:55:46 57° NNE 17:56:30 48° ENE
Meteor 2-21 Rocket 4.3 17:50:52 10° N 17:57:03 84° E 18:03:08 10° SSE
CZ-4 R/B 3.3 17:59:49 17° N 17:59:49 17° N 18:00:57 10° N
Cosmos 2298 Rocket 4.3 17:53:54 10° NNW 17:59:00 43° ENE 18:00:27 35° E
Landsat 5 4.1 18:00:26 35° SE 18:00:26 35° SE 18:03:27 10° SSE
Cosmos 1570 Rocket 4.4 17:56:35 10° S 18:01:27 40° ESE 18:02:05 38° E
CZ-4B R/B 3.1 17:56:25 10° SSE 18:01:51 87° WSW 18:07:14 10° NNW
ATLAS CENTAUR R/B 2.5 17:53:17 10° SW 18:01:58 76° SSE 18:03:22 44° ENE
Cosmos 1500 3.7 17:59:34 10° NNW 18:03:18 59° W 18:06:57 10° S
CZ-2C R/B 2.5 17:59:22 17° NNE 18:03:19 62° ESE 18:08:25 10° S
SL-08 RB Rocket 3.7 18:00:06 10° SSE 18:04:39 59° ENE 18:09:12 10° N
GEOS 3 Rocket 3.5 18:02:08 27° ESE 18:05:04 72° NE 18:10:15 10° NW
Cosmos 540 Rocket 3.4 18:00:11 10° SSW 18:05:18 88° WNW 18:08:24 24° NNE
Meteor 1-11 Rocket 4.0 18:01:30 10° N 18:06:49 42° ENE 18:07:51 38° E
Cosmos 1818 3.5 18:01:21 10° NW 18:06:50 66° NE 18:09:03 36° ESE
USA 305 2.9 18:04:10 10° WNW 18:08:22 62° N 18:08:55 55° NE
Cosmos 1814 Rocket 4.1 18:04:04 10° S 18:09:07 52° ESE 18:10:09 44° ENE
Cosmos 44 Rocket 3.2 18:05:41 10° NW 18:10:39 65° NE 18:11:47 49° ESE
CZ-4C R/B 2.9 18:03:49 10° NW 18:10:51 87° SW 18:19:13 10° SE
Sich 1 4.1 18:07:53 10° NNW 18:11:59 46° W 18:16:06 10° SSW
Meteor 1-26 Rocket 4.4 18:06:44 10° SSW 18:12:42 80° WNW 18:18:48 10° N
IRS-1C Rocket 4.5 18:20:33 42° NE 18:20:33 42° NE 18:24:49 10° N
Feng Yun 1-1 Rocket 4.2 18:14:47 10° SSE 18:20:42 76° ENE 18:26:35 10° NNW
Cosmos 2360 Rocket 3.1 18:18:04 10° NNW 18:22:14 30° NNE 18:22:14 30° NNE
COSMOS 2428 4.5 18:24:50 10° NNW 18:27:32 17° NNE 18:27:32 17° NNE
deb Chang Zheng 4 4.4 18:24:49 10° S 18:29:00 50° W 18:33:14 10° NNW
Cosmos 1666 3.5 18:29:19 10° NNW 18:32:56 48° W 18:36:30 10° S
ERBS 4.4 18:30:45 10° WNW 18:32:20 22° NW 18:32:20 22° NW
Cosmos 2208 Rocket 4.1 18:28:49 10° S 18:33:46 58° SE 18:33:46 58° SE
H-2A R/B 3.5 18:31:03 10° SSW 18:35:48 37° W 18:40:30 10° NNW
Cosmos 2150 Rocket 3.8 18:31:48 10° NNW 18:36:59 74° ENE 18:37:02 74° ENE
USA 306 3.4 18:36:15 10° WNW 18:39:44 54° NW 18:39:44 54° NW
Cosmos 2322 Rocket 2.4 18:36:56 10° NNW 18:41:56 54° NNE 18:41:56 54° NNE
COSMO-SKYMED 1 3.1 18:42:21 44° NNW 18:43:25 58° WNW 18:47:41 10° SSW
USA 267 3.4 18:45:34 47° NE 18:47:22 65° NNW 18:53:50 10° W
Cosmos 2279 Rocket 4.3 18:41:59 10° SSW 18:48:09 67° WNW 18:54:22 10° N
Cosmos 1980 Rocket 3.6 18:43:48 10° NW 18:48:56 36° WSW 18:54:01 10° S
Cosmos 2266 Rocket 4.0 18:43:27 10° N 18:49:51 88° W 18:56:17 10° S
Cosmos 1812 4.0 18:48:02 10° SW 18:51:36 39° WNW 18:51:36 39° WNW
Cosmos 1633 Rocket 4.5 18:51:18 10° NNW 18:55:20 37° W 18:59:21 10° SSW
Cosmos 841 Rocket 4.3 18:50:49 10° SW 18:55:48 48° WNW 18:57:22 36° NNW
YAOGAN 1 4.0 18:59:29 32° NNW 18:59:29 32° NNW 19:01:56 10° NNW
Cosmos 1125 Rocket 3.6 18:52:44 10° NNW 18:57:27 71° NW 18:57:27 71° NW
USA 307 4.1 18:54:33 10° WNW 18:57:22 39° WNW 18:57:22 39° WNW
SL-16 R/B 2.1 18:53:53 10° NNW 18:59:21 82° NNW 18:59:21 82° NNW
Cosmos 2237 Rocket 4.4 19:00:20 10° N 19:01:32 13° N 19:01:32 13° N
Meteor 2-15 Rocket 4.3 18:57:44 10° S 19:03:20 75° SSE 19:03:20 75° SSE
Cosmos 2082 Rocket 2.6 18:59:46 10° SW 19:05:22 58° NW 19:06:21 51° NNW
Okean O Rocket 3.7 19:03:50 10° SSW 19:07:37 27° W 19:11:28 10° NW
Cosmos 2333 Rocket 3.8 19:03:30 10° NNW 19:06:12 24° N 19:06:12 24° N
ATLAS CENTAUR R/B 4.1 19:10:50 10° NW 19:12:21 14° NNW 19:12:21 14° NNW
NOSS 3-4 (A) 4.3 19:12:00 10° NW 19:17:15 43° N 19:17:15 43° N
NOSS 3-4 (C) 4.3 19:12:06 10° NW 19:17:21 43° N 19:17:21 43° N
ATLAS 2AS CENTAUR R/B 3.7 19:14:25 10° NW 19:20:53 35° N 19:20:53 35° N
ISS -0.2 19:23:04 10° WSW 19:23:10 10° WSW 19:23:10 10° WSW
COSMOS 2455 3.5 19:20:56 10° WSW 19:26:45 48° NW 19:27:05 48° NNW
Cosmos 1833 Rocket 4.4 19:25:31 10° W 19:30:10 26° NW 19:31:31 23° NNW
CZ-4 R/B 4.4 19:35:48 10° NW 19:35:48 10° NW 19:35:49 10° NW
Lacrosse 5 rocket 4.0 19:31:04 10° WNW 19:32:07 17° WNW 19:32:07 17° WNW
Cosmos 2219 Rocket 4.2 19:32:23 10° NNW 19:34:05 19° NNW 19:34:05 19° NNW
Cosmos 2360 Rocket 4.2 20:01:56 10° NW 20:04:00 23° NW 20:04:00 23° NW
Cosmos 2322 Rocket 4.4 20:21:27 10° NW 20:23:46 21° WNW 20:23:46 21° WNW
